Location: Ferintosh
(52.7647°N, 112.9692°W)
Time: 14:30:00
(UTC+00:00)

Transit 2A Rocket - Pass Details

Date: 27 May 2024
Orbit: 583 x 910 km, 66.7° (Epoch: 22 June)

Event Time Altitude Azimuth Distance (km) Brightness Sun altitude
Rises 16:45:24 0° 317° (NW) 3,348 7.9 45.8°
Reaches altitude 10° 16:47:57 10° 326° (NW) 2,460 7.4 46.1°
Maximum altitude 16:53:17 38° 34° (NE) 1,318 6.7 46.8°
Drops below altitude 10° 16:58:53 10° 102° (ESE) 2,583 8.6 47.5°
Sets 17:01:38 0° 110° (ESE) 3,534 9.1 47.9°
